Satellite-Ground Cal/Val Site Overpasses Predictions

Prediction of Satellite NPP Overpassing Cal/Val Site: Antarctic Dome C

Ground Cal/Val Site Location: Latitude: -75.10, Longitude: 123.35; Satellite-Ground Site NADIR distance within 100 km.

Table of predicted overpasses for the next 14.0 days since TLE Epoch: 4/29/2023
Interval Starting Time Ending Time Minimum Distance Time Minimum Distance (km)
1 04/30/2023 15:09:45 04/30/2023 15:09:56 04/30/2023 15:09:50 91.46
2 05/01/2023 14:50:44 05/01/2023 14:51:13 05/01/2023 14:50:59 19.91
3 05/03/2023 07:33:32 05/03/2023 07:34:01 05/03/2023 07:33:47 1.50
4 05/06/2023 14:56:54 05/06/2023 14:57:23 05/06/2023 14:57:09 16.47
5 05/07/2023 14:38:13 05/07/2023 14:38:25 05/07/2023 14:38:19 90.62
6 05/08/2023 07:39:42 05/08/2023 07:40:09 05/08/2023 07:39:56 36.81
7 05/09/2023 07:20:55 05/09/2023 07:21:15 05/09/2023 07:21:05 73.47
8 05/11/2023 15:03:06 05/11/2023 15:03:31 05/11/2023 15:03:18 53.06
